IU5JAE-13 Weather Reports


Display with metric or nautical units.
time (UTC)temp
F
wind
direction
speed
MPH
gust
MPH
rain 1hr
in
rain 24hr
in
rain mn
in
humidity
%
barometer
mb
20260506204517 52 256 0.0 2.0 0.00 2.57 2.35 96 1012.1
20260506203534 53 250 1.0 3.0 0.00 2.57 2.35 96 1012.0
20260506202532 53 254 1.0 3.0 0.00 2.57 2.35 96 1012.0
20260506201530 53 260 1.0 3.0 0.00 2.57 2.35 96 1011.9
20260506200528 53 291 0.0 2.0 0.00 2.58 2.35 96 1011.8
20260506195525 53 240 0.0 2.0 0.00 2.58 2.35 96 1011.7
20260506194522 54 163 1.0 3.0 0.00 2.58 2.35 96 1011.6
20260506193520 54 125 1.0 5.0 0.00 2.60 2.35 96 1011.5
20260506192518 53 64 0.0 2.0 0.00 2.60 2.35 94 1011.4
20260506191515 53 271 1.0 2.0 0.00 2.60 2.35 93 1011.2
20260506190533 53 287 0.0 2.0 0.00 2.62 2.35 93 1011.0
20260506185531 54 292 0.0 2.0 0.00 2.63 2.35 92 1010.8
20260506184529 54 0.0 1.0 0.00 2.63 2.35 92 1010.7
20260506183526 55 296 0.0 2.0 0.00 2.63 2.35 91 1010.6
20260506182523 55 16 1.0 3.0 0.00 2.63 2.35 90 1010.6
20260506181521 55 241 1.0 2.0 0.00 2.63 2.35 90 1010.5
20260506180518 56 62 1.0 3.0 0.00 2.63 2.35 91 1010.5
20260506175516 56 70 1.0 3.0 0.00 2.63 2.35 92 1010.3
20260506174534 56 86 1.0 3.0 0.00 2.63 2.35 91 1010.2
20260506173531 57 53 3.0 7.0 0.00 2.63 2.35 91 1010.3
20260506172529 57 86 3.0 5.0 0.00 2.63 2.35 91 1010.4
20260506171526 57 102 2.0 4.0 0.00 2.63 2.35 90 1010.4
20260506170524 57 103 3.0 5.0 0.00 2.63 2.35 89 1010.4
20260506165522 57 120 2.0 4.0 0.00 2.63 2.35 88 1010.2
20260506164519 58 95 1.0 4.0 0.00 2.63 2.35 86 1010.3
20260506163517 58 55 1.0 4.0 0.00 2.63 2.35 84 1010.3
20260506162535 58 150 0.0 2.0 0.00 2.63 2.35 85 1010.4
20260506161532 58 101 1.0 6.0 0.00 2.63 2.35 85 1010.4
20260506160530 58 176 1.0 6.0 0.00 2.63 2.35 84 1010.4
20260506155527 59 187 1.0 6.0 0.00 2.63 2.35 82 1010.3
20260506154525 59 162 2.0 4.0 0.00 2.63 2.35 80 1010.5
20260506153523 60 96 2.0 4.0 0.00 2.63 2.35 79 1010.4
20260506152520 61 56 2.0 6.0 0.00 2.63 2.35 78 1010.2
20260506151518 61 77 3.0 6.0 0.00 2.63 2.35 79 1010.3
20260506150515 61 266 3.0 7.0 0.00 2.63 2.35 78 1010.3
20260506145533 60 101 1.0 3.0 0.00 2.63 2.35 82 1010.3
20260506144531 60 289 3.0 9.0 0.00 2.63 2.35 81 1010.3
20260506143528 61 128 1.0 6.0 0.00 2.63 2.35 85 1010.2
20260506142526 61 96 2.0 4.0 0.00 2.63 2.35 85 1010.2
20260506141523 60 93 2.0 6.0 0.00 2.63 2.35 87 1010.2
20260506140521 59 95 2.0 5.0 0.00 2.63 2.35 88 1010.3
20260506135519 59 83 3.0 6.0 0.00 2.63 2.35 91 1010.2
20260506134516 58 63 3.0 7.0 0.00 2.63 2.35 92 1010.4
20260506133534 58 85 4.0 10.0 0.00 2.63 2.35 92 1010.4
20260506132532 58 90 4.0 10.0 0.00 2.63 2.35 92 1010.4
20260506131529 58 75 3.0 6.0 0.00 2.63 2.35 93 1010.3
20260506130527 58 78 4.0 6.0 0.00 2.63 2.35 94 1010.3
20260506125524 58 80 3.0 6.0 0.00 2.63 2.35 95 1010.2
20260506124522 58 83 3.0 11.0 0.00 2.63 2.35 96 1010.3
20260506123519 57 80 4.0 11.0 0.05 2.63 2.35 96 1010.1
20260506122517 57 80 4.0 10.0 0.09 2.63 2.35 98 1010.2
20260506121535 58 87 2.0 7.0 0.11 2.63 2.35 98 1010.3
20260506120532 57 82 2.0 8.0 0.16 2.65 2.35 97 1010.1
20260506115530 57 96 1.0 4.0 0.16 2.72 2.35 96 1009.9
20260506114528 55 62 4.0 11.0 0.16 2.72 2.35 96 1010.0
20260506113525 56 88 4.0 9.0 0.11 2.68 2.30 98 1010.1
20260506112523 57 81 5.0 10.0 0.11 2.63 2.25 99 1009.9
20260506111520 57 101 5.0 12.0 0.27 2.62 2.24 99 1009.7
20260506110518 57 86 4.0 14.0 0.30 2.57 2.19 99 1009.8
20260506105515 57 94 4.0 11.0 0.30 2.56 2.19 99 1009.8
20260506104533 57 177 4.0 13.0 0.30 2.57 2.19 99 1009.9
20260506103531 56 83 4.0 11.0 0.30 2.59 2.19 99 1009.8
20260506102528 55 94 4.0 8.0 0.26 2.55 2.15 99 1010.0
20260506101526 56 178 4.0 12.0 0.09 2.37 1.97 99 1010.0
20260506100524 57 170 4.0 11.0 0.02 2.30 1.89 99 1009.9
20260506095521 57 139 5.0 12.0 0.02 2.31 1.89 99 1009.8
20260506094519 57 147 5.0 12.0 0.01 2.34 1.89 99 1009.8
20260506093516 56 172 4.0 15.0 0.02 2.35 1.89 99 1009.7
20260506092534 56 140 4.0 11.0 0.02 2.35 1.89 99 1009.6
20260506091532 56 240 3.0 10.0 0.01 2.40 1.87 99 1009.7
20260506090529 56 168 4.0 10.0 0.01 2.53 1.87 99 1009.5
20260506085527 56 101 3.0 14.0 0.01 2.67 1.87 99 1009.4
20260506084525 55 145 4.0 12.0 0.01 2.70 1.87 99 1009.4
20260506083522 55 239 3.0 10.0 0.00 2.84 1.87 99 1009.8
20260506082520 55 149 4.0 9.0 0.01 2.91 1.87 99 1009.7
20260506081517 55 152 4.0 11.0 0.02 2.93 1.87 99 1009.8
20260506080535 55 179 4.0 10.0 0.02 3.00 1.86 99 1009.7
20260506073528 55 123 1.0 5.0 0.25 3.11 1.86 99 1009.9
20260506072525 55 185 4.0 8.0 0.28 3.17 1.86 99 1009.9
20260506071523 55 200 1.0 4.0 0.39 3.43 1.85 99 1009.8
20260506070520 55 173 4.0 10.0 0.44 3.56 1.85 99 1009.7
20260506061528 54 185 1.0 2.0 0.13 3.19 1.46 99 1009.6
20260506060526 54 41 1.0 3.0 0.12 3.14 1.41 99 1009.4
20260506050532 53 240 1.0 3.0 0.13 3.23 1.29 99 1009.7
20260506044527 54 231 1.0 2.0 0.15 3.51 1.24 99 1009.6
20260506043524 54 206 3.0 5.0 0.13 3.68 1.22 99 1009.7
20260506042522 54 198 2.0 3.0 0.11 3.78 1.19 99 1009.7
20260506041519 54 191 2.0 4.0 0.11 3.81 1.18 99 1009.6
20260506040517 54 217 2.0 5.0 0.10 3.80 1.16 99 1009.7
20260506035535 54 233 2.0 4.0 0.06 3.76 1.11 99 1009.7
20260506034532 54 220 2.0 6.0 0.06 3.75 1.09 99 1009.8
20260506033530 54 218 1.0 4.0 0.07 3.76 1.09 99 1009.8
20260506032528 54 231 2.0 4.0 0.09 3.76 1.09 99 1009.8
20260506031525 54 203 4.0 6.0 0.07 3.75 1.07 99 1010.1
20260506030523 54 203 5.0 11.0 0.13 3.74 1.06 99 1010.0
20260506025520 55 164 2.0 6.0 0.17 3.75 1.05 99 1009.9
20260506024518 54 249 0.0 2.0 0.15 3.76 1.04 99 1009.9
20260506023515 54 102 0.0 2.0 0.13 3.76 1.02 99 1009.9
20260506022533 54 255 0.0 2.0 0.12 3.82 1.00 99 1010.1
20260506021531 54 182 0.0 2.0 0.11 3.86 1.00 99 1009.9
20260506020528 54 256 1.0 2.0 0.06 3.83 0.93 99 1010.2
20260506015526 54 84 0.0 2.0 0.03 3.80 0.88 99 1010.3
20260506014523 54 232 1.0 2.0 0.09 3.82 0.88 99 1010.7
20260506013521 54 222 1.0 2.0 0.18 3.85 0.88 99 1010.6
20260506012518 54 177 0.0 2.0 0.24 3.87 0.88 99 1010.4
20260506011516 54 203 0.0 2.0 0.27 3.88 0.88 99 1010.7
20260506010534 54 51 0.0 2.0 0.31 3.89 0.88 99 1010.7
20260506005531 54 186 1.0 2.0 0.30 3.89 0.85 99 1010.9
20260506004529 55 151 1.0 4.0 0.24 3.85 0.79 99 1011.1
20260506003527 55 177 1.0 3.0 0.15 3.78 0.70 99 1011.2
20260506002524 55 204 1.0 3.0 0.10 3.73 0.65 99 1011.4
20260506001522 55 203 1.0 2.0 0.19 3.69 0.61 99 1011.3
20260506000519 55 209 1.0 3.0 0.32 3.65 0.57 99 1011.4
20260505235517 55 209 3.0 8.0 0.37 3.64 0.56 99 1011.6
20260505234535 55 193 5.0 10.0 0.54 3.64 0.56 99 1011.5
20260505233532 56 208 2.0 5.0 0.56 3.64 0.56 99 1011.2
20260505232530 56 210 3.0 8.0 0.54 3.63 0.54 99 1011.4
20260505231527 56 197 4.0 10.0 0.42 3.50 0.42 99 1011.5
20260505230525 56 196 2.0 6.0 0.25 3.33 0.25 99 1011.5
20260505225522 56 267 1.0 3.0 0.19 3.26 0.18 99 1011.5
20260505224520 56 184 1.0 3.0 0.02 3.09 0.01 99 1011.7
20260505223518 56 198 4.0 9.0 0.02 3.08 0.00 99 1012.0
20260505222515 57 186 1.0 3.0 0.06 3.08 0.00 99 1012.1
20260505221533 57 195 3.0 8.0 0.11 3.08 0.00 99 1012.2
20260505220530 57 209 3.0 9.0 0.17 3.08 0.00 99 1012.1
20260505215528 57 185 2.0 6.0 0.19 3.08 3.08 99 1012.0
20260505214526 57 224 1.0 3.0 0.21 3.07 3.07 99 1012.0
20260505213523 57 209 1.0 4.0 0.21 3.07 3.07 99 1012.2
20260505212521 57 201 4.0 9.0 0.16 3.02 3.02 99 1012.6
20260505211518 57 218 4.0 9.0 0.12 2.98 2.98 99 1012.6
20260505210516 57 106 3.0 9.0 0.06 2.91 2.91 99 1012.4
20260505205534 57 168 3.0 11.0 0.04 2.89 2.89 99 1012.6